Location: Bo?a Wola
(50.4192°N, 19.7966°E)
Time: 04:20:13
(UTC+00:00)

GEOS 3 Rocket - Pass Details

Date: 18 September 2024
Orbit: 790 x 825 km, 115.0° (Epoch: 14 October)

Event Time Altitude Azimuth Distance (km) Brightness Sun altitude
Exits shadow 17:09:43 - 103° (ESE) 2,824 5.7 -4.4°
Reaches altitude 10° 17:10:51 10° 99° (E) 2,394 5.4 -4.6°
Maximum altitude 17:15:36 38° 33° (NNE) 1,220 4.4 -5.3°
Drops below altitude 10° 17:20:19 10° 327° (NNW) 2,382 6.7 -6.1°
Sets 17:22:44 0° 319° (NW) 3,310 7.7 -6.5°
